Station Historical Data
Daily Summary for October 15, 2017 Units:  English    Metric   Both
Next Day »
Daily Weekly Monthly Yearly Custom
  High: Low: Average:
Temperature: 77.0 °F 56.8 °F 64.2 °F
Dew Point: 33.4 °F 21.9 °F 27.9 °F
Humidity: 38% 14% 26%
Wind Speed: 14.0mph 0.0mph 2.7mph
Wind Gust: 20.0mph - -
Wind- - SE
Pressure: 30.24 in 30.16 in -
Precipitation: 0.00 in    
Historical Graphs
 
 
Tabular Data for October 15, 2017
Time Temperature Dew Point Pressure Wind Wind Speed Wind Gust Humidity Rainfall Rate (Hourly) solar Conditions
00:02 57.5 °F 31.5 °F 30.17 in Calm   6.0 mph 37% 0.00 in 0.00 W/m2
00:07 57.5 °F 31.5 °F 30.17 in East 2.0 mph 5.0 mph 37% 0.00 in 0.00 W/m2
00:12 57.5 °F 32.1 °F 30.17 in East 2.0 mph 8.0 mph 38% 0.00 in 0.00 W/m2
00:17 57.4 °F 31.4 °F 30.17 in East 4.0 mph 7.0 mph 37% 0.00 in 0.00 W/m2
00:22 57.3 °F 31.3 °F 30.17 in East 6.0 mph 7.0 mph 37% 0.00 in 0.00 W/m2
00:27 57.2 °F 31.8 °F 30.17 in East 1.0 mph 5.0 mph 38% 0.00 in 0.00 W/m2
00:32 57.1 °F 31.1 °F 30.17 in Calm   8.0 mph 37% 0.00 in 0.00 W/m2
00:33 57.1 °F 31.1 °F 30.17 in Calm   8.0 mph 37% 0.00 in 0.00 W/m2
00:38 57.1 °F 31.1 °F 30.17 in East 5.0 mph 8.0 mph 37% 0.00 in 0.00 W/m2
00:43 57.0 °F 31.0 °F 30.18 in Calm   9.0 mph 37% 0.00 in 0.00 W/m2
00:48 57.0 °F 31.0 °F 30.18 in East 2.0 mph 9.0 mph 37% 0.00 in 0.00 W/m2
00:53 56.9 °F 30.9 °F 30.18 in Calm   9.0 mph 37% 0.00 in 0.00 W/m2
00:58 56.9 °F 30.9 °F 30.18 in East 2.0 mph 9.0 mph 37% 0.00 in 0.00 W/m2
01:03 56.9 °F 30.9 °F 30.18 in East 8.0 mph 10.0 mph 37% 0.00 in 0.00 W/m2
01:08 56.8 °F 30.8 °F 30.17 in Calm   9.0 mph 37% 0.00 in 0.00 W/m2
01:13 56.8 °F 30.8 °F 30.18 in Calm   11.0 mph 37% 0.00 in 0.00 W/m2
01:18 56.9 °F 30.2 °F 30.17 in East 4.0 mph 11.0 mph 36% 0.00 in 0.00 W/m2
01:19 56.9 °F 30.2 °F 30.17 in Calm   11.0 mph 36% 0.00 in 0.00 W/m2
01:24 56.9 °F 30.2 °F 30.18 in ESE 6.0 mph 13.0 mph 36% 0.00 in 0.00 W/m2
01:29 57.0 °F 31.0 °F 30.18 in East 8.0 mph 13.0 mph 37% 0.00 in 0.00 W/m2
01:34 57.0 °F 30.3 °F 30.18 in Calm   12.0 mph 36% 0.00 in 0.00 W/m2
01:39 57.1 °F 30.4 °F 30.17 in East 9.0 mph 16.0 mph 36% 0.00 in 0.00 W/m2
01:44 57.2 °F 30.5 °F 30.17 in East 6.0 mph 15.0 mph 36% 0.00 in 0.00 W/m2
01:49 57.3 °F 29.9 °F 30.17 in East 4.0 mph 13.0 mph 35% 0.00 in 0.00 W/m2
01:54 57.4 °F 30.0 °F 30.17 in East 4.0 mph 15.0 mph 35% 0.00 in 0.00 W/m2
02:00 57.5 °F 29.4 °F 30.17 in East 9.0 mph 18.0 mph 34% 0.00 in 0.00 W/m2
02:05 57.7 °F 29.5 °F 30.17 in Calm   20.0 mph 34% 0.00 in 0.00 W/m2
02:10 57.8 °F 29.6 °F 30.17 in East 12.0 mph 16.0 mph 34% 0.00 in 0.00 W/m2
02:15 57.9 °F 29.7 °F 30.18 in ESE 1.0 mph 14.0 mph 34% 0.00 in 0.00 W/m2
02:20 57.9 °F 29.7 °F 30.18 in ESE 5.0 mph 13.0 mph 34% 0.00 in 0.00 W/m2
02:25 58.0 °F 29.8 °F 30.18 in East 14.0 mph 15.0 mph 34% 0.00 in 0.00 W/m2
02:30 58.0 °F 29.1 °F 30.18 in Calm   12.0 mph 33% 0.00 in 0.00 W/m2
02:35 58.0 °F 29.8 °F 30.18 in East 12.0 mph 13.0 mph 34% 0.00 in 0.00 W/m2
02:40 57.9 °F 29.7 °F 30.18 in East 9.0 mph 12.0 mph 34% 0.00 in 0.00 W/m2
02:45 57.9 °F 29.0 °F 30.18 in Calm   15.0 mph 33% 0.00 in 0.00 W/m2
02:50 57.9 °F 29.0 °F 30.18 in ESE 5.0 mph 11.0 mph 33% 0.00 in 0.00 W/m2
02:55 57.9 °F 29.0 °F 30.18 in East 4.0 mph 15.0 mph 33% 0.00 in 0.00 W/m2
03:00 57.8 °F 28.9 °F 30.18 in ESE 6.0 mph 12.0 mph 33% 0.00 in 0.00 W/m2
03:05 57.7 °F 28.1 °F 30.18 in East 6.0 mph 16.0 mph 32% 0.00 in 0.00 W/m2
03:10 57.7 °F 28.8 °F 30.18 in Calm   13.0 mph 33% 0.00 in 0.00 W/m2
03:15 57.7 °F 28.8 °F 30.18 in East 4.0 mph 12.0 mph 33% 0.00 in 0.00 W/m2
03:20 57.6 °F 28.0 °F 30.18 in East 4.0 mph 12.0 mph 32% 0.00 in 0.00 W/m2
03:25 57.6 °F 28.0 °F 30.18 in ESE 8.0 mph 14.0 mph 32% 0.00 in 0.00 W/m2
03:30 57.7 °F 28.1 °F 30.18 in ESE 1.0 mph 13.0 mph 32% 0.00 in 0.00 W/m2
03:35 57.7 °F 28.1 °F 30.18 in ESE 6.0 mph 14.0 mph 32% 0.00 in 0.00 W/m2
03:40 57.7 °F 28.1 °F 30.18 in East 5.0 mph 13.0 mph 32% 0.00 in 0.00 W/m2
03:45 57.7 °F 27.3 °F 30.17 in East 9.0 mph 13.0 mph 31% 0.00 in 0.00 W/m2
03:50 57.7 °F 27.3 °F 30.18 in East 12.0 mph 15.0 mph 31% 0.00 in 0.00 W/m2
03:55 57.7 °F 27.3 °F 30.17 in East 8.0 mph 11.0 mph 31% 0.00 in 0.00 W/m2
04:00 57.7 °F 27.3 °F 30.18 in East 9.0 mph 16.0 mph 31% 0.00 in 0.00 W/m2
04:05 57.7 °F 27.3 °F 30.17 in East 8.0 mph 15.0 mph 31% 0.00 in 0.00 W/m2
04:10 57.7 °F 27.3 °F 30.17 in East 11.0 mph 14.0 mph 31% 0.00 in 0.00 W/m2
04:15 57.7 °F 27.3 °F 30.17 in East 6.0 mph 14.0 mph 31% 0.00 in 0.00 W/m2
04:20 57.7 °F 27.3 °F 30.17 in East 11.0 mph 19.0 mph 31% 0.00 in 0.00 W/m2
04:25 57.6 °F 27.2 °F 30.17 in ESE 2.0 mph 15.0 mph 31% 0.00 in 0.00 W/m2
04:30 57.6 °F 26.4 °F 30.17 in ESE 6.0 mph 18.0 mph 30% 0.00 in 0.00 W/m2
04:35 57.6 °F 26.4 °F 30.17 in ESE 11.0 mph 16.0 mph 30% 0.00 in 0.00 W/m2
04:40 57.6 °F 25.6 °F 30.17 in ESE 14.0 mph 18.0 mph 29% 0.00 in 0.00 W/m2
04:45 57.7 °F 25.7 °F 30.17 in ESE 4.0 mph 18.0 mph 29% 0.00 in 0.00 W/m2
04:50 57.8 °F 25.8 °F 30.17 in East 5.0 mph 14.0 mph 29% 0.00 in 0.00 W/m2
04:55 57.9 °F 25.9 °F 30.17 in ESE 5.0 mph 14.0 mph 29% 0.00 in 0.00 W/m2
05:00 58.0 °F 25.1 °F 30.17 in East 6.0 mph 15.0 mph 28% 0.00 in 0.00 W/m2
05:05 57.9 °F 25.9 °F 30.17 in East 9.0 mph 17.0 mph 29% 0.00 in 0.00 W/m2
05:10 57.9 °F 25.9 °F 30.17 in East 5.0 mph 16.0 mph 29% 0.00 in 0.00 W/m2
05:15 57.9 °F 25.0 °F 30.17 in East 4.0 mph 15.0 mph 28% 0.00 in 0.00 W/m2
05:20 57.8 °F 24.9 °F 30.17 in SE 8.0 mph 14.0 mph 28% 0.00 in 0.00 W/m2
05:25 57.8 °F 24.9 °F 30.18 in ESE 11.0 mph 18.0 mph 28% 0.00 in 0.00 W/m2
05:30 57.7 °F 24.8 °F 30.18 in ESE 1.0 mph 16.0 mph 28% 0.00 in 0.00 W/m2
05:35 57.7 °F 24.8 °F 30.18 in East 6.0 mph 19.0 mph 28% 0.00 in 0.00 W/m2
05:40 57.6 °F 24.8 °F 30.18 in East 2.0 mph 16.0 mph 28% 0.00 in 0.00 W/m2
05:45 57.6 °F 24.8 °F 30.18 in East 9.0 mph 19.0 mph 28% 0.00 in 0.00 W/m2
05:48 57.6 °F 23.9 °F 30.18 in ESE 8.0 mph 14.0 mph 27% 0.00 in 0.00 W/m2
05:53 57.6 °F 23.9 °F 30.18 in East 7.0 mph 16.0 mph 27% 0.00 in 0.00 W/m2
05:58 57.5 °F 23.8 °F 30.17 in ESE 2.0 mph 14.0 mph 27% 0.00 in 0.00 W/m2
06:03 57.5 °F 23.8 °F 30.18 in East 1.0 mph 8.0 mph 27% 0.00 in 0.00 W/m2
06:08 57.5 °F 23.8 °F 30.18 in Calm   13.0 mph 27% 0.00 in 0.00 W/m2
06:13 57.5 °F 23.8 °F 30.18 in ESE 8.0 mph 11.0 mph 27% 0.00 in 0.00 W/m2
06:18 57.5 °F 23.8 °F 30.18 in ENE 4.0 mph 13.0 mph 27% 0.00 in 0.00 W/m2
06:23 57.4 °F 23.7 °F 30.18 in East 5.0 mph 13.0 mph 27% 0.00 in 0.00 W/m2
06:28 57.4 °F 23.7 °F 30.18 in East 8.0 mph 12.0 mph 27% 0.00 in 0.00 W/m2
06:33 57.4 °F 23.7 °F 30.18 in East 2.0 mph 12.0 mph 27% 0.00 in 0.00 W/m2
06:38 57.4 °F 23.7 °F 30.18 in Calm   15.0 mph 27% 0.00 in 0.00 W/m2
06:43 57.4 °F 22.8 °F 30.18 in East 9.0 mph 15.0 mph 26% 0.00 in 0.00 W/m2
06:48 57.4 °F 22.8 °F 30.18 in Calm   18.0 mph 26% 0.00 in 0.00 W/m2
06:53 57.4 °F 22.8 °F 30.18 in East 4.0 mph 11.0 mph 26% 0.00 in 0.00 W/m2
06:58 57.4 °F 22.8 °F 30.18 in ENE 2.0 mph 8.0 mph 26% 0.00 in 0.00 W/m2
07:03 57.4 °F 22.8 °F 30.18 in ESE 4.0 mph 9.0 mph 26% 0.00 in 5.00 W/m2
07:08 57.4 °F 21.9 °F 30.18 in ESE 4.0 mph 13.0 mph 25% 0.00 in 9.00 W/m2
07:13 57.4 °F 22.8 °F 30.19 in ESE 1.0 mph 9.0 mph 26% 0.00 in 9.00 W/m2
07:18 57.4 °F 22.8 °F 30.19 in East 1.0 mph 13.0 mph 26% 0.00 in 12.00 W/m2
07:23 57.4 °F 22.8 °F 30.19 in Calm   9.0 mph 26% 0.00 in 19.00 W/m2
07:28 57.4 °F 22.8 °F 30.19 in ESE 4.0 mph 9.0 mph 26% 0.00 in 26.00 W/m2
07:33 57.4 °F 22.8 °F 30.19 in East 1.0 mph 11.0 mph 26% 0.00 in 33.00 W/m2
07:38 57.4 °F 22.8 °F 30.19 in ESE 1.0 mph 9.0 mph 26% 0.00 in 39.00 W/m2
07:43 57.4 °F 22.8 °F 30.19 in East 6.0 mph 11.0 mph 26% 0.00 in 42.00 W/m2
07:48 57.4 °F 22.8 °F 30.19 in ESE 2.0 mph 14.0 mph 26% 0.00 in 54.00 W/m2
07:53 57.5 °F 22.9 °F 30.19 in ESE 6.0 mph 9.0 mph 26% 0.00 in 62.00 W/m2
07:58 57.6 °F 23.0 °F 30.19 in ESE 2.0 mph 11.0 mph 26% 0.00 in 84.00 W/m2
08:03 57.6 °F 23.9 °F 30.20 in ESE 1.0 mph 13.0 mph 27% 0.00 in 104.00 W/m2
08:08 57.7 °F 23.1 °F 30.20 in ESE 1.0 mph 8.0 mph 26% 0.00 in 113.00 W/m2
08:13 57.8 °F 24.1 °F 30.20 in ESE 4.0 mph 11.0 mph 27% 0.00 in 153.00 W/m2
08:19 57.8 °F 24.1 °F 30.20 in East 1.0 mph 9.0 mph 27% 0.00 in 125.00 W/m2
08:24 57.9 °F 24.1 °F 30.20 in ESE 2.0 mph 10.0 mph 27% 0.00 in 158.00 W/m2
08:29 58.0 °F 24.2 °F 30.21 in Calm   9.0 mph 27% 0.00 in 192.00 W/m2
08:34 58.1 °F 25.2 °F 30.21 in East 5.0 mph 11.0 mph 28% 0.00 in 169.00 W/m2
08:39 58.3 °F 25.4 °F 30.21 in Calm   9.0 mph 28% 0.00 in 243.00 W/m2
08:44 58.5 °F 25.5 °F 30.21 in ESE 5.0 mph 8.0 mph 28% 0.00 in 181.00 W/m2
08:46 58.5 °F 24.7 °F 30.21 in East 2.0 mph 4.0 mph 27% 0.00 in 179.00 W/m2
08:51 58.7 °F 25.7 °F 30.21 in ESE 13.0 mph 13.0 mph 28% 0.00 in 230.00 W/m2
08:56 58.8 °F 25.8 °F 30.21 in East 5.0 mph 5.0 mph 28% 0.00 in 288.00 W/m2
09:01 59.0 °F 25.1 °F 30.21 in Calm   7.0 mph 27% 0.00 in 329.00 W/m2
09:06 59.2 °F 25.3 °F 30.21 in Calm   5.0 mph 27% 0.00 in 339.00 W/m2
09:11 59.4 °F 26.3 °F 30.21 in ESE 1.0 mph 4.0 mph 28% 0.00 in 360.00 W/m2
09:16 59.6 °F 25.6 °F 30.21 in ESE 11.0 mph 12.0 mph 27% 0.00 in 376.00 W/m2
09:21 60.0 °F 26.0 °F 30.22 in Calm   6.0 mph 27% 0.00 in 374.00 W/m2
09:26 60.3 °F 25.3 °F 30.22 in ESE 5.0 mph 12.0 mph 26% 0.00 in 374.00 W/m2
09:31 60.6 °F 26.5 °F 30.22 in Calm   7.0 mph 27% 0.00 in 362.00 W/m2
09:36 60.9 °F 26.7 °F 30.22 in Calm   5.0 mph 27% 0.00 in 269.00 W/m2
09:41 61.2 °F 27.0 °F 30.22 in ESE 1.0 mph 7.0 mph 27% 0.00 in 345.00 W/m2
09:46 61.4 °F 26.2 °F 30.22 in Calm   6.0 mph 26% 0.00 in 366.00 W/m2
09:51 61.7 °F 26.5 °F 30.22 in Calm   6.0 mph 26% 0.00 in 443.00 W/m2
09:56 62.0 °F 27.7 °F 30.23 in Calm   8.0 mph 27% 0.00 in 446.00 W/m2
10:01 62.3 °F 28.8 °F 30.23 in Calm   2.0 mph 28% 0.00 in 455.00 W/m2
10:06 62.6 °F 29.1 °F 30.23 in ESE 4.0 mph 4.0 mph 28% 0.00 in 457.00 W/m2
10:11 63.0 °F 27.6 °F 30.23 in Calm   4.0 mph 26% 0.00 in 513.00 W/m2
10:16 63.3 °F 25.9 °F 30.23 in ESE 2.0 mph 8.0 mph 24% 0.00 in 473.00 W/m2
10:21 63.6 °F 26.2 °F 30.24 in ESE 4.0 mph 4.0 mph 24% 0.00 in 585.00 W/m2
10:26 64.0 °F 26.5 °F 30.23 in ESE 1.0 mph 6.0 mph 24% 0.00 in 573.00 W/m2
10:31 64.4 °F 25.8 °F 30.24 in Calm   2.0 mph 23% 0.00 in 580.00 W/m2
10:36 65.1 °F 25.3 °F 30.23 in SE 1.0 mph 2.0 mph 22% 0.00 in 592.00 W/m2
10:37 65.3 °F 25.5 °F 30.23 in Calm   6.0 mph 22% 0.00 in 592.00 W/m2
10:42 65.9 °F 26.0 °F 30.24 in Calm   7.0 mph 22% 0.00 in 598.00 W/m2
10:47 66.4 °F 26.4 °F 30.24 in Calm   2.0 mph 22% 0.00 in 580.00 W/m2
10:52 67.1 °F 28.1 °F 30.24 in SE 1.0 mph 4.0 mph 23% 0.00 in 582.00 W/m2
10:57 67.6 °F 28.5 °F 30.24 in SSE 1.0 mph 5.0 mph 23% 0.00 in 526.00 W/m2
11:02 68.1 °F 26.7 °F 30.23 in SSE 5.0 mph 8.0 mph 21% 0.00 in 533.00 W/m2
11:07 68.5 °F 24.6 °F 30.23 in Calm   6.0 mph 19% 0.00 in 599.00 W/m2
11:12 69.0 °F 25.1 °F 30.23 in Calm   6.0 mph 19% 0.00 in 657.00 W/m2
11:17 69.6 °F 25.5 °F 30.23 in Calm   8.0 mph 19% 0.00 in 659.00 W/m2
11:22 70.1 °F 27.2 °F 30.23 in Calm   8.0 mph 20% 0.00 in 640.00 W/m2
11:27 70.6 °F 26.4 °F 30.24 in South 5.0 mph 7.0 mph 19% 0.00 in 628.00 W/m2
11:32 71.1 °F 25.5 °F 30.23 in Calm     18% 0.00 in 633.00 W/m2
11:37 71.7 °F 29.7 °F 30.23 in Calm   7.0 mph 21% 0.00 in 671.00 W/m2
11:38 71.8 °F 27.4 °F 30.23 in SSW 6.0 mph 7.0 mph 19% 0.00 in 656.00 W/m2
11:43 72.2 °F 26.4 °F 30.23 in Calm   5.0 mph 18% 0.00 in 599.00 W/m2
11:48 72.6 °F 26.7 °F 30.23 in SSW 2.0 mph 9.0 mph 18% 0.00 in 671.00 W/m2
11:53 73.0 °F 28.3 °F 30.23 in Calm   1.0 mph 19% 0.00 in 582.00 W/m2
11:58 73.2 °F 28.5 °F 30.23 in SSW 3.0 mph 8.0 mph 19% 0.00 in 705.00 W/m2
12:03 73.4 °F 27.4 °F 30.23 in Calm   4.0 mph 18% 0.00 in 698.00 W/m2
12:08 73.6 °F 27.5 °F 30.23 in Calm   7.0 mph 18% 0.00 in 703.00 W/m2
12:13 73.7 °F 27.6 °F 30.23 in South 3.0 mph 7.0 mph 18% 0.00 in 708.00 W/m2
12:18 73.9 °F 26.4 °F 30.23 in South 2.0 mph 5.0 mph 17% 0.00 in 694.00 W/m2
12:23 74.0 °F 27.9 °F 30.23 in SW 2.0 mph 8.0 mph 18% 0.00 in 671.00 W/m2
12:28 74.2 °F 28.0 °F 30.23 in SSW 6.0 mph 7.0 mph 18% 0.00 in 615.00 W/m2
12:33 74.4 °F 26.8 °F 30.23 in Calm   5.0 mph 17% 0.00 in 589.00 W/m2
12:38 74.5 °F 25.4 °F 30.23 in SSW 3.0 mph 8.0 mph 16% 0.00 in 722.00 W/m2
12:43 74.7 °F 25.6 °F 30.22 in Calm   5.0 mph 16% 0.00 in 652.00 W/m2
12:49 74.8 °F 25.6 °F 30.22 in Calm   8.0 mph 16% 0.00 in 705.00 W/m2
12:54 75.0 °F 25.8 °F 30.22 in SW 4.0 mph 4.0 mph 16% 0.00 in 719.00 W/m2
12:59 75.1 °F 25.9 °F 30.22 in Calm   9.0 mph 16% 0.00 in 710.00 W/m2
13:04 75.2 °F 26.0 °F 30.22 in Calm   5.0 mph 16% 0.00 in 701.00 W/m2
13:09 75.3 °F 22.9 °F 30.22 in West 5.0 mph 7.0 mph 14% 0.00 in 707.00 W/m2
13:14 75.5 °F 23.0 °F 30.21 in WSW 4.0 mph 7.0 mph 14% 0.00 in 698.00 W/m2
13:19 75.7 °F 24.8 °F 30.21 in SW 2.0 mph 7.0 mph 15% 0.00 in 666.00 W/m2
13:24 75.8 °F 26.5 °F 30.21 in Calm   7.0 mph 16% 0.00 in 689.00 W/m2
13:29 76.0 °F 25.1 °F 30.21 in WSW 3.0 mph 8.0 mph 15% 0.00 in 700.00 W/m2
13:34 76.1 °F 25.1 °F 30.20 in WSW 4.0 mph 6.0 mph 15% 0.00 in 691.00 W/m2
13:39 76.2 °F 25.2 °F 30.20 in SW 1.0 mph 9.0 mph 15% 0.00 in 686.00 W/m2
13:44 76.3 °F 23.6 °F 30.20 in SW 5.0 mph 7.0 mph 14% 0.00 in 684.00 W/m2
13:49 76.5 °F 23.8 °F 30.20 in South 8.0 mph 10.0 mph 14% 0.00 in 686.00 W/m2
13:54 76.7 °F 24.0 °F 30.20 in Calm   7.0 mph 14% 0.00 in 668.00 W/m2
13:59 76.9 °F 24.1 °F 30.20 in SSW 1.0 mph 8.0 mph 14% 0.00 in 656.00 W/m2
14:04 77.0 °F 24.2 °F 30.19 in Calm   9.0 mph 14% 0.00 in 645.00 W/m2
14:09 77.0 °F 24.2 °F 30.19 in Calm   5.0 mph 14% 0.00 in 636.00 W/m2
14:15 77.0 °F 24.2 °F 30.19 in WSW 3.0 mph 6.0 mph 14% 0.00 in 621.00 W/m2
14:20 76.9 °F 24.1 °F 30.19 in Calm   6.0 mph 14% 0.00 in 605.00 W/m2
14:25 76.9 °F 24.1 °F 30.19 in Calm   6.0 mph 14% 0.00 in 592.00 W/m2
14:30 76.8 °F 25.7 °F 30.19 in WSW 5.0 mph 7.0 mph 15% 0.00 in 601.00 W/m2
14:35 76.7 °F 25.6 °F 30.19 in Calm   9.0 mph 15% 0.00 in 599.00 W/m2
14:40 76.7 °F 24.0 °F 30.19 in WSW 3.0 mph 9.0 mph 14% 0.00 in 564.00 W/m2
14:45 76.7 °F 25.6 °F 30.18 in Calm   3.0 mph 15% 0.00 in 575.00 W/m2
14:50 76.6 °F 25.5 °F 30.18 in WSW 7.0 mph 7.0 mph 15% 0.00 in 592.00 W/m2
14:55 76.5 °F 27.0 °F 30.18 in Calm   5.0 mph 16% 0.00 in 568.00 W/m2
15:00 76.5 °F 28.5 °F 30.18 in WSW 3.0 mph 6.0 mph 17% 0.00 in 517.00 W/m2
15:05 76.5 °F 28.5 °F 30.18 in Calm   8.0 mph 17% 0.00 in 527.00 W/m2
15:10 76.4 °F 26.9 °F 30.18 in Calm   8.0 mph 16% 0.00 in 496.00 W/m2
15:15 76.4 °F 28.4 °F 30.18 in SSW 5.0 mph 6.0 mph 17% 0.00 in 510.00 W/m2
15:20 76.4 °F 26.9 °F 30.18 in Calm   5.0 mph 16% 0.00 in 489.00 W/m2
15:25 76.3 °F 28.3 °F 30.18 in Calm   4.0 mph 17% 0.00 in 483.00 W/m2
15:30 76.2 °F 28.2 °F 30.18 in Calm   2.0 mph 17% 0.00 in 483.00 W/m2
15:35 76.2 °F 29.6 °F 30.18 in SW 3.0 mph 4.0 mph 18% 0.00 in 490.00 W/m2
15:40 76.2 °F 26.8 °F 30.18 in Calm     16% 0.00 in 359.00 W/m2
15:45 76.1 °F 29.6 °F 30.17 in Calm   4.0 mph 18% 0.00 in 468.00 W/m2
15:50 76.0 °F 29.5 °F 30.17 in Calm   5.0 mph 18% 0.00 in 455.00 W/m2
15:55 76.0 °F 29.5 °F 30.17 in Calm   3.0 mph 18% 0.00 in 432.00 W/m2
16:00 75.9 °F 32.0 °F 30.17 in Calm   5.0 mph 20% 0.00 in 425.00 W/m2
16:05 75.8 °F 27.9 °F 30.17 in Calm   4.0 mph 17% 0.00 in 401.00 W/m2
16:10 75.7 °F 27.8 °F 30.17 in Calm   5.0 mph 17% 0.00 in 380.00 W/m2
16:15 75.7 °F 29.2 °F 30.17 in Calm   6.0 mph 18% 0.00 in 362.00 W/m2
16:20 75.5 °F 29.1 °F 30.17 in Calm   1.0 mph 18% 0.00 in 323.00 W/m2
16:25 75.4 °F 27.6 °F 30.17 in Calm     17% 0.00 in 345.00 W/m2
16:30 75.3 °F 27.5 °F 30.17 in WSW 1.0 mph 4.0 mph 17% 0.00 in 315.00 W/m2
16:36 75.2 °F 28.8 °F 30.17 in Calm     18% 0.00 in 318.00 W/m2
16:41 75.0 °F 28.7 °F 30.17 in Calm     18% 0.00 in 295.00 W/m2
16:46 74.8 °F 29.8 °F 30.17 in West 4.0 mph 4.0 mph 19% 0.00 in 274.00 W/m2
16:51 74.7 °F 29.7 °F 30.17 in West 1.0 mph 1.0 mph 19% 0.00 in 260.00 W/m2
16:56 74.6 °F 29.7 °F 30.17 in Calm     19% 0.00 in 241.00 W/m2
17:01 74.4 °F 29.5 °F 30.17 in Calm   2.0 mph 19% 0.00 in 178.00 W/m2
17:06 74.3 °F 29.4 °F 30.17 in Calm     19% 0.00 in 202.00 W/m2
17:11 74.2 °F 29.3 °F 30.17 in Calm     19% 0.00 in 185.00 W/m2
17:16 74.0 °F 30.4 °F 30.17 in Calm     20% 0.00 in 169.00 W/m2
17:21 73.9 °F 30.3 °F 30.17 in Calm     20% 0.00 in 149.00 W/m2
17:26 73.7 °F 31.4 °F 30.17 in Calm     21% 0.00 in 128.00 W/m2
17:31 73.5 °F 31.2 °F 30.17 in Calm     21% 0.00 in 109.00 W/m2
17:36 73.3 °F 32.2 °F 30.17 in Calm     22% 0.00 in 86.00 W/m2
17:41 73.0 °F 32.0 °F 30.17 in Calm     22% 0.00 in 74.00 W/m2
17:46 72.5 °F 32.6 °F 30.16 in Calm     23% 0.00 in 60.00 W/m2
17:51 72.1 °F 32.3 °F 30.16 in Calm     23% 0.00 in 47.00 W/m2
17:56 71.7 °F 33.0 °F 30.16 in Calm     24% 0.00 in 37.00 W/m2
18:01 71.3 °F 32.7 °F 30.17 in Calm     24% 0.00 in 26.00 W/m2
18:06 70.6 °F 33.1 °F 30.16 in Calm     25% 0.00 in 21.00 W/m2
18:11 70.2 °F 32.8 °F 30.16 in Calm     25% 0.00 in 16.00 W/m2
18:16 69.6 °F 33.2 °F 30.17 in Calm     26% 0.00 in 12.00 W/m2
18:21 69.0 °F 32.7 °F 30.17 in Calm     26% 0.00 in 7.00 W/m2
18:26 68.3 °F 33.1 °F 30.17 in Calm     27% 0.00 in 5.00 W/m2
18:31 67.6 °F 33.4 °F 30.17 in Calm     28% 0.00 in 0.00 W/m2
18:36 66.9 °F 32.8 °F 30.17 in Calm     28% 0.00 in 0.00 W/m2
18:41 66.3 °F 33.1 °F 30.17 in Calm     29% 0.00 in 0.00 W/m2
18:46 65.8 °F 32.7 °F 30.16 in Calm     29% 0.00 in 0.00 W/m2
18:51 65.4 °F 32.3 °F 30.16 in Calm     29% 0.00 in 0.00 W/m2
18:56 65.0 °F 32.8 °F 30.17 in Calm     30% 0.00 in 0.00 W/m2
19:01 64.7 °F 32.6 °F 30.17 in Calm     30% 0.00 in 0.00 W/m2
19:07 64.3 °F 32.2 °F 30.17 in Calm     30% 0.00 in 0.00 W/m2
19:12 64.0 °F 32.8 °F 30.17 in Calm     31% 0.00 in 0.00 W/m2
19:17 63.7 °F 32.5 °F 30.17 in Calm     31% 0.00 in 0.00 W/m2
19:22 63.5 °F 32.3 °F 30.17 in Calm     31% 0.00 in 0.00 W/m2
19:27 63.2 °F 32.9 °F 30.17 in Calm     32% 0.00 in 0.00 W/m2
19:32 63.0 °F 32.7 °F 30.17 in Calm     32% 0.00 in 0.00 W/m2
19:37 62.9 °F 32.6 °F 30.17 in Calm     32% 0.00 in 0.00 W/m2
19:42 62.7 °F 32.4 °F 30.17 in Calm     32% 0.00 in 0.00 W/m2
19:47 62.5 °F 32.3 °F 30.17 in Calm     32% 0.00 in 0.00 W/m2
19:52 62.4 °F 32.9 °F 30.18 in Calm     33% 0.00 in 0.00 W/m2
19:57 62.3 °F 32.9 °F 30.18 in Calm     33% 0.00 in 0.00 W/m2
20:02 62.3 °F 32.1 °F 30.18 in Calm     32% 0.00 in 0.00 W/m2
20:07 62.2 °F 32.0 °F 30.18 in Calm     32% 0.00 in 0.00 W/m2
20:12 62.1 °F 31.9 °F 30.18 in Calm     32% 0.00 in 0.00 W/m2
20:17 62.0 °F 31.8 °F 30.18 in Calm   2.0 mph 32% 0.00 in 0.00 W/m2
20:22 61.9 °F 31.7 °F 30.18 in Calm   3.0 mph 32% 0.00 in 0.00 W/m2
20:27 61.8 °F 31.6 °F 30.18 in WSW 1.0 mph 4.0 mph 32% 0.00 in 0.00 W/m2
20:32 61.8 °F 31.6 °F 30.18 in SW 2.0 mph 5.0 mph 32% 0.00 in 0.00 W/m2
20:37 61.8 °F 31.6 °F 30.18 in SSW 2.0 mph 3.0 mph 32% 0.00 in 0.00 W/m2
20:42 61.7 °F 31.6 °F 30.18 in Calm   5.0 mph 32% 0.00 in 0.00 W/m2
20:47 61.7 °F 31.6 °F 30.18 in SSE 2.0 mph 4.0 mph 32% 0.00 in 0.00 W/m2
20:52 61.6 °F 31.5 °F 30.18 in SE 1.0 mph 6.0 mph 32% 0.00 in 0.00 W/m2
20:57 61.6 °F 31.5 °F 30.18 in SE 6.0 mph 6.0 mph 32% 0.00 in 0.00 W/m2
21:02 61.6 °F 31.5 °F 30.18 in ESE 2.0 mph 5.0 mph 32% 0.00 in 0.00 W/m2
21:07 61.6 °F 30.7 °F 30.18 in Calm   7.0 mph 31% 0.00 in 0.00 W/m2
21:12 61.5 °F 30.6 °F 30.19 in ESE 4.0 mph 5.0 mph 31% 0.00 in 0.00 W/m2
21:13 61.5 °F 30.6 °F 30.18 in ESE 1.0 mph 5.0 mph 31% 0.00 in 0.00 W/m2
21:18 61.5 °F 30.6 °F 30.19 in ESE 2.0 mph 7.0 mph 31% 0.00 in 0.00 W/m2
21:22 61.5 °F 30.6 °F 30.19 in ESE 5.0 mph 6.0 mph 31% 0.00 in 0.00 W/m2
21:27 61.5 °F 30.6 °F 30.19 in ESE 2.0 mph 7.0 mph 31% 0.00 in 0.00 W/m2
21:32 61.4 °F 29.7 °F 30.19 in ESE 6.0 mph 8.0 mph 30% 0.00 in 0.00 W/m2
21:37 61.4 °F 29.7 °F 30.19 in ESE 8.0 mph 8.0 mph 30% 0.00 in 0.00 W/m2
21:42 61.4 °F 29.7 °F 30.19 in ESE 2.0 mph 9.0 mph 30% 0.00 in 0.00 W/m2
21:47 61.4 °F 29.7 °F 30.19 in East 2.0 mph 9.0 mph 30% 0.00 in 0.00 W/m2
21:52 61.3 °F 29.6 °F 30.19 in East 9.0 mph 11.0 mph 30% 0.00 in 0.00 W/m2
21:57 61.3 °F 29.6 °F 30.19 in East 2.0 mph 9.0 mph 30% 0.00 in 0.00 W/m2
22:02 61.3 °F 29.6 °F 30.19 in East 6.0 mph 13.0 mph 30% 0.00 in 0.00 W/m2
22:07 61.3 °F 29.6 °F 30.19 in ESE 5.0 mph 11.0 mph 30% 0.00 in 0.00 W/m2
22:12 61.3 °F 28.8 °F 30.19 in ESE 9.0 mph 12.0 mph 29% 0.00 in 0.00 W/m2
22:17 61.2 °F 28.7 °F 30.19 in East 5.0 mph 9.0 mph 29% 0.00 in 0.00 W/m2
22:22 61.3 °F 28.8 °F 30.19 in East 4.0 mph 13.0 mph 29% 0.00 in 0.00 W/m2
22:27 61.3 °F 28.8 °F 30.19 in ESE 7.0 mph 9.0 mph 29% 0.00 in 0.00 W/m2
22:29 61.3 °F 28.8 °F 30.19 in East 5.0 mph 11.0 mph 29% 0.00 in 0.00 W/m2
22:34 61.3 °F 28.8 °F 30.19 in East 2.0 mph 15.0 mph 29% 0.00 in 0.00 W/m2
22:39 61.3 °F 28.8 °F 30.19 in Calm   13.0 mph 29% 0.00 in 0.00 W/m2
22:44 61.3 °F 28.8 °F 30.19 in ESE 1.0 mph 13.0 mph 29% 0.00 in 0.00 W/m2
22:49 61.3 °F 27.9 °F 30.19 in ESE 5.0 mph 12.0 mph 28% 0.00 in 0.00 W/m2
22:55 61.2 °F 27.9 °F 30.19 in ESE 5.0 mph 12.0 mph 28% 0.00 in 0.00 W/m2
23:00 61.2 °F 27.9 °F 30.19 in East 8.0 mph 13.0 mph 28% 0.00 in 0.00 W/m2
23:05 61.2 °F 27.9 °F 30.19 in East 1.0 mph 13.0 mph 28% 0.00 in 0.00 W/m2
23:10 61.1 °F 27.8 °F 30.19 in ESE 2.0 mph 11.0 mph 28% 0.00 in 0.00 W/m2
23:15 61.0 °F 27.7 °F 30.19 in ESE 1.0 mph 11.0 mph 28% 0.00 in 0.00 W/m2
23:20 61.0 °F 27.7 °F 30.19 in ESE 11.0 mph 11.0 mph 28% 0.00 in 0.00 W/m2
23:25 60.9 °F 27.6 °F 30.19 in East 4.0 mph 13.0 mph 28% 0.00 in 0.00 W/m2
23:30 60.8 °F 27.5 °F 30.19 in East 2.0 mph 12.0 mph 28% 0.00 in 0.00 W/m2
23:35 60.7 °F 27.4 °F 30.19 in East 2.0 mph 9.0 mph 28% 0.00 in 0.00 W/m2
23:40 60.6 °F 27.3 °F 30.19 in East 4.0 mph 9.0 mph 28% 0.00 in 0.00 W/m2
23:45 60.5 °F 27.3 °F 30.19 in East 5.0 mph 8.0 mph 28% 0.00 in 0.00 W/m2
23:50 60.4 °F 27.2 °F 30.19 in Calm   8.0 mph 28% 0.00 in 0.00 W/m2
23:55 60.4 °F 27.2 °F 30.19 in Calm   7.0 mph 28% 0.00 in 0.00 W/m2
Foresthill Weather
 WU-history PHP script courtesy of   Juneau County Weather.
powered by Cumulus v1.9.3 (1059)
Ambient Weather VWS v14.00
Top Contact Website Map Copyright © 2007 - 2018 Foresthillweather.com Never base important decisions on this or any weather information obtained from the Internet